Year,Month,Day,Hour,Minute,Value (Times are PST for temperature in C)
2014,09,13,00,00,13.50
2014,09,13,00,01,13.40
2014,09,13,00,02,13.30
2014,09,13,00,03,13.30
2014,09,13,00,04,13.30
2014,09,13,00,05,13.30
2014,09,13,00,06,13.30
2014,09,13,00,07,13.30
2014,09,13,00,08,13.40
2014,09,13,00,09,13.40
2014,09,13,00,10,13.40
2014,09,13,00,11,13.40
2014,09,13,00,12,13.40
2014,09,13,00,13,13.50
2014,09,13,00,14,13.50
2014,09,13,00,15,13.50
2014,09,13,00,16,13.50
2014,09,13,00,17,13.40
2014,09,13,00,18,13.40
2014,09,13,00,19,13.30
2014,09,13,00,20,13.30
2014,09,13,00,21,13.30
2014,09,13,00,22,13.30
2014,09,13,00,23,13.30
2014,09,13,00,24,13.20
2014,09,13,00,25,13.20
2014,09,13,00,26,13.10
2014,09,13,00,27,13.10
2014,09,13,00,28,13.10
2014,09,13,00,29,13.10
2014,09,13,00,30,13.00
2014,09,13,00,31,13.00
2014,09,13,00,32,12.90
2014,09,13,00,33,12.90
2014,09,13,00,34,12.90
2014,09,13,00,35,12.80
2014,09,13,00,36,12.70
2014,09,13,00,37,12.80
2014,09,13,00,38,12.80
2014,09,13,00,39,12.80
2014,09,13,00,40,12.90
2014,09,13,00,41,12.90
2014,09,13,00,42,13.00
2014,09,13,00,43,13.00
2014,09,13,00,44,13.10
2014,09,13,00,45,13.20
2014,09,13,00,46,13.20
2014,09,13,00,47,13.10
2014,09,13,00,48,13.10
2014,09,13,00,49,13.00
2014,09,13,00,50,12.90
2014,09,13,00,51,12.80
2014,09,13,00,52,12.80
2014,09,13,00,53,12.70
2014,09,13,00,54,12.70
2014,09,13,00,55,12.60
2014,09,13,00,56,12.50
2014,09,13,00,57,12.30
2014,09,13,00,58,12.10
2014,09,13,00,59,12.00
2014,09,13,01,00,11.90
2014,09,13,01,01,11.80
2014,09,13,01,02,11.80
2014,09,13,01,03,11.80
2014,09,13,01,04,11.80
2014,09,13,01,05,11.90
2014,09,13,01,06,11.90
2014,09,13,01,07,11.90
2014,09,13,01,08,11.90
2014,09,13,01,09,11.90
2014,09,13,01,10,12.00
2014,09,13,01,11,12.00
2014,09,13,01,12,12.00
2014,09,13,01,13,12.10
2014,09,13,01,14,12.10
2014,09,13,01,15,12.10
2014,09,13,01,16,12.10
2014,09,13,01,17,12.00
2014,09,13,01,18,12.00
2014,09,13,01,19,12.00
2014,09,13,01,20,12.00
2014,09,13,01,21,11.90
2014,09,13,01,22,11.90
2014,09,13,01,23,12.00
2014,09,13,01,24,12.10
2014,09,13,01,25,12.20
2014,09,13,01,26,12.30
2014,09,13,01,27,12.40
2014,09,13,01,28,12.50
2014,09,13,01,29,12.60
2014,09,13,01,30,12.60
2014,09,13,01,31,12.60
2014,09,13,01,32,12.60
2014,09,13,01,33,12.60
2014,09,13,01,34,12.50
2014,09,13,01,35,12.40
2014,09,13,01,36,12.40
2014,09,13,01,37,12.30
2014,09,13,01,38,12.30
2014,09,13,01,39,12.30
2014,09,13,01,40,12.40
2014,09,13,01,41,12.40
2014,09,13,01,42,12.40
2014,09,13,01,43,12.40
2014,09,13,01,44,12.50
2014,09,13,01,45,12.50
2014,09,13,01,46,12.50
2014,09,13,01,47,12.50
2014,09,13,01,48,12.40
2014,09,13,01,49,12.40
2014,09,13,01,50,12.30
2014,09,13,01,51,12.30
2014,09,13,01,52,12.30
2014,09,13,01,53,12.30
2014,09,13,01,54,12.20
2014,09,13,01,55,12.20
2014,09,13,01,56,12.20
2014,09,13,01,57,12.20
2014,09,13,01,58,12.10
2014,09,13,01,59,12.10
2014,09,13,02,00,12.20
2014,09,13,02,01,12.20
2014,09,13,02,02,12.30
2014,09,13,02,03,12.30
2014,09,13,02,04,12.40
2014,09,13,02,05,12.40
2014,09,13,02,06,12.40
2014,09,13,02,07,12.40
2014,09,13,02,08,12.40
2014,09,13,02,09,12.40
2014,09,13,02,10,12.40
2014,09,13,02,11,12.30
2014,09,13,02,12,12.30
2014,09,13,02,13,12.30
2014,09,13,02,14,12.30
2014,09,13,02,15,12.20
2014,09,13,02,16,12.20
2014,09,13,02,17,12.20
2014,09,13,02,18,12.10
2014,09,13,02,19,12.10
2014,09,13,02,20,12.00
2014,09,13,02,21,12.00
2014,09,13,02,22,11.90
2014,09,13,02,23,11.90
2014,09,13,02,24,11.90
2014,09,13,02,25,11.90
2014,09,13,02,26,11.80
2014,09,13,02,27,11.80
2014,09,13,02,28,11.80
2014,09,13,02,29,11.80
2014,09,13,02,30,11.80
2014,09,13,02,31,11.90
2014,09,13,02,32,11.90
2014,09,13,02,33,12.00
2014,09,13,02,34,12.10
2014,09,13,02,35,12.20
2014,09,13,02,36,12.20
2014,09,13,02,37,12.30
2014,09,13,02,38,12.30
2014,09,13,02,39,12.30
2014,09,13,02,40,12.30
2014,09,13,02,41,12.30
2014,09,13,02,42,12.30
2014,09,13,02,43,12.30
2014,09,13,02,44,12.20
2014,09,13,02,45,12.20
2014,09,13,02,46,12.20
2014,09,13,02,47,12.20
2014,09,13,02,48,12.20
2014,09,13,02,49,12.10
2014,09,13,02,50,12.10
2014,09,13,02,51,12.10
2014,09,13,02,52,12.00
2014,09,13,02,53,11.90
2014,09,13,02,54,11.90
2014,09,13,02,55,11.80
2014,09,13,02,56,11.70
2014,09,13,02,57,11.70
2014,09,13,02,58,11.60
2014,09,13,02,59,11.60
2014,09,13,03,00,11.60
2014,09,13,03,01,11.50
2014,09,13,03,02,11.50
2014,09,13,03,03,11.60
2014,09,13,03,04,11.70
2014,09,13,03,05,11.80
2014,09,13,03,06,11.90
2014,09,13,03,07,11.90
2014,09,13,03,08,11.90
2014,09,13,03,09,11.90
2014,09,13,03,10,11.90
2014,09,13,03,11,11.90
2014,09,13,03,12,11.90
2014,09,13,03,13,11.90
2014,09,13,03,14,11.90
2014,09,13,03,15,11.80
2014,09,13,03,16,11.80
2014,09,13,03,17,11.80
2014,09,13,03,18,11.70
2014,09,13,03,19,11.80
2014,09,13,03,20,11.80
2014,09,13,03,21,11.80
2014,09,13,03,22,11.80
2014,09,13,03,23,11.80
2014,09,13,03,24,11.80
2014,09,13,03,25,11.80
2014,09,13,03,26,11.90
2014,09,13,03,27,12.10
2014,09,13,03,28,12.20
2014,09,13,03,29,12.30
2014,09,13,03,30,12.30
2014,09,13,03,31,12.50
2014,09,13,03,32,12.60
2014,09,13,03,33,12.60
2014,09,13,03,34,12.60
2014,09,13,03,35,12.60
2014,09,13,03,36,12.60
2014,09,13,03,37,12.60
2014,09,13,03,38,12.60
2014,09,13,03,39,12.60
2014,09,13,03,40,12.60
2014,09,13,03,41,12.70
2014,09,13,03,42,12.70
2014,09,13,03,43,12.70
2014,09,13,03,44,12.70
2014,09,13,03,45,12.70
2014,09,13,03,46,12.70
2014,09,13,03,47,12.70
2014,09,13,03,48,12.70
2014,09,13,03,49,12.70
2014,09,13,03,50,12.70
2014,09,13,03,51,12.70
2014,09,13,03,52,12.60
2014,09,13,03,53,12.60
2014,09,13,03,54,12.60
2014,09,13,03,55,12.60
2014,09,13,03,56,12.50
2014,09,13,03,57,12.50
2014,09,13,03,58,12.40
2014,09,13,03,59,12.40
2014,09,13,04,00,12.30
2014,09,13,04,01,12.20
2014,09,13,04,02,12.10
2014,09,13,04,03,12.10
2014,09,13,04,04,12.00
2014,09,13,04,05,12.00
2014,09,13,04,06,12.00
2014,09,13,04,07,12.10
2014,09,13,04,08,12.20
2014,09,13,04,09,12.30
2014,09,13,04,10,12.30
2014,09,13,04,11,12.50
2014,09,13,04,12,12.50
2014,09,13,04,13,12.60
2014,09,13,04,14,12.60
2014,09,13,04,15,12.60
2014,09,13,04,16,12.60
2014,09,13,04,17,12.60
2014,09,13,04,18,12.60
2014,09,13,04,19,12.60
2014,09,13,04,20,12.60
2014,09,13,04,21,12.60
2014,09,13,04,22,12.50
2014,09,13,04,23,12.50
2014,09,13,04,24,12.50
2014,09,13,04,25,12.50
2014,09,13,04,26,12.50
2014,09,13,04,27,12.50
2014,09,13,04,28,12.50
2014,09,13,04,29,12.50
2014,09,13,04,30,12.50
2014,09,13,04,31,12.50
2014,09,13,04,32,12.50
2014,09,13,04,33,12.50
2014,09,13,04,34,12.40
2014,09,13,04,35,12.40
2014,09,13,04,36,12.40
2014,09,13,04,37,12.30
2014,09,13,04,38,12.30
2014,09,13,04,39,12.30
2014,09,13,04,40,12.30
2014,09,13,04,41,12.20
2014,09,13,04,42,12.20
2014,09,13,04,43,12.20
2014,09,13,04,44,12.20
2014,09,13,04,45,12.10
2014,09,13,04,46,12.10
2014,09,13,04,47,12.00
2014,09,13,04,48,11.90
2014,09,13,04,49,11.90
2014,09,13,04,50,11.90
2014,09,13,04,51,11.90
2014,09,13,04,52,11.90
2014,09,13,04,53,11.90
2014,09,13,04,54,11.90
2014,09,13,04,55,11.90
2014,09,13,04,56,12.00
2014,09,13,04,57,12.00
2014,09,13,04,58,12.10
2014,09,13,04,59,12.10
2014,09,13,05,00,12.10
2014,09,13,05,01,12.10
2014,09,13,05,02,12.10
2014,09,13,05,03,12.20
2014,09,13,05,04,12.30
2014,09,13,05,05,12.30
2014,09,13,05,06,12.40
2014,09,13,05,07,12.50
2014,09,13,05,08,12.60
2014,09,13,05,09,12.60
2014,09,13,05,10,12.60
2014,09,13,05,11,12.60
2014,09,13,05,12,12.70
2014,09,13,05,13,12.70
2014,09,13,05,14,12.70
2014,09,13,05,15,12.70
2014,09,13,05,16,12.70
2014,09,13,05,17,12.60
2014,09,13,05,18,12.60
2014,09,13,05,19,12.60
2014,09,13,05,20,12.60
2014,09,13,05,21,12.70
2014,09,13,05,22,12.70
2014,09,13,05,23,12.70
2014,09,13,05,24,12.70
2014,09,13,05,25,12.70
2014,09,13,05,26,12.70
2014,09,13,05,27,12.70
2014,09,13,05,28,12.60
2014,09,13,05,29,12.60
2014,09,13,05,30,12.50
2014,09,13,05,31,12.50
2014,09,13,05,32,12.50
2014,09,13,05,33,12.40
2014,09,13,05,34,12.40
2014,09,13,05,35,12.40
2014,09,13,05,36,12.40
2014,09,13,05,37,12.30
2014,09,13,05,38,12.30
2014,09,13,05,39,12.20
2014,09,13,05,40,12.20
2014,09,13,05,41,12.20
2014,09,13,05,42,12.10
2014,09,13,05,43,12.10
2014,09,13,05,44,12.10
2014,09,13,05,45,12.00
2014,09,13,05,46,12.00
2014,09,13,05,47,11.90
2014,09,13,05,48,11.90
2014,09,13,05,49,11.80
2014,09,13,05,50,11.80
2014,09,13,05,51,11.80
2014,09,13,05,52,11.80
2014,09,13,05,53,11.70
2014,09,13,05,54,11.60
2014,09,13,05,55,11.60
2014,09,13,05,56,11.60
2014,09,13,05,57,11.60
2014,09,13,05,58,11.60
2014,09,13,05,59,11.70
2014,09,13,06,00,11.70
2014,09,13,06,01,11.80
2014,09,13,06,02,11.80
2014,09,13,06,03,11.80
2014,09,13,06,04,11.70
2014,09,13,06,05,11.70
2014,09,13,06,06,11.70
2014,09,13,06,07,11.60
2014,09,13,06,08,11.60
2014,09,13,06,09,11.50
2014,09,13,06,10,11.50
2014,09,13,06,11,11.40
2014,09,13,06,12,11.40
2014,09,13,06,13,11.30
2014,09,13,06,14,11.30
2014,09,13,06,15,11.30
2014,09,13,06,16,11.30
2014,09,13,06,17,11.30
2014,09,13,06,18,11.30
2014,09,13,06,19,11.40
2014,09,13,06,20,11.40
2014,09,13,06,21,11.40
2014,09,13,06,22,11.50
2014,09,13,06,23,11.50
2014,09,13,06,24,11.60
2014,09,13,06,25,11.60
2014,09,13,06,26,11.60
2014,09,13,06,27,11.70
2014,09,13,06,28,11.70
2014,09,13,06,29,11.70
2014,09,13,06,30,11.80
2014,09,13,06,31,11.80
2014,09,13,06,32,11.80
2014,09,13,06,33,11.80
2014,09,13,06,34,11.80
2014,09,13,06,35,11.80
2014,09,13,06,36,11.80
2014,09,13,06,37,11.70
2014,09,13,06,38,11.70
2014,09,13,06,39,11.70
2014,09,13,06,40,11.60
2014,09,13,06,41,11.60
2014,09,13,06,42,11.60
2014,09,13,06,43,11.60
2014,09,13,06,44,11.60
2014,09,13,06,45,11.60
2014,09,13,06,46,11.60
2014,09,13,06,47,11.60
2014,09,13,06,48,11.60
2014,09,13,06,49,11.60
2014,09,13,06,50,11.50
2014,09,13,06,51,11.50
2014,09,13,06,52,11.50
2014,09,13,06,53,11.40
2014,09,13,06,54,11.40
2014,09,13,06,55,11.40
2014,09,13,06,56,11.30
2014,09,13,06,57,11.30
2014,09,13,06,58,11.30
2014,09,13,06,59,11.30
2014,09,13,07,00,11.20
2014,09,13,07,01,11.20
2014,09,13,07,02,11.20
2014,09,13,07,03,11.10
2014,09,13,07,04,11.10
2014,09,13,07,05,11.10
2014,09,13,07,06,11.00
2014,09,13,07,07,11.00
2014,09,13,07,08,11.00
2014,09,13,07,09,10.90
2014,09,13,07,10,10.90
2014,09,13,07,11,10.90
2014,09,13,07,12,10.90
2014,09,13,07,13,10.90
2014,09,13,07,14,10.90
2014,09,13,07,15,11.00
2014,09,13,07,16,11.00
2014,09,13,07,17,11.00
2014,09,13,07,18,11.00
2014,09,13,07,19,11.10
2014,09,13,07,20,11.10
2014,09,13,07,21,11.10
2014,09,13,07,22,11.10
2014,09,13,07,23,11.10
2014,09,13,07,24,11.10
2014,09,13,07,25,11.20
2014,09,13,07,26,11.20
2014,09,13,07,27,11.20
2014,09,13,07,28,11.20
2014,09,13,07,29,11.30
2014,09,13,07,30,11.30
2014,09,13,07,31,11.40
2014,09,13,07,32,11.40
2014,09,13,07,33,11.50
2014,09,13,07,34,11.50
2014,09,13,07,35,11.60
2014,09,13,07,36,11.60
2014,09,13,07,37,11.60
2014,09,13,07,38,11.70
2014,09,13,07,39,11.70
2014,09,13,07,40,11.80
2014,09,13,07,41,11.90
2014,09,13,07,42,12.00
2014,09,13,07,43,12.00
2014,09,13,07,44,12.20
2014,09,13,07,45,12.20
2014,09,13,07,46,12.30
2014,09,13,07,47,12.40
2014,09,13,07,48,12.40
2014,09,13,07,49,12.40
2014,09,13,07,50,12.50
2014,09,13,07,51,12.60
2014,09,13,07,52,12.60
2014,09,13,07,53,12.70
2014,09,13,07,54,12.70
2014,09,13,07,55,12.80
2014,09,13,07,56,12.80
2014,09,13,07,57,12.90
2014,09,13,07,58,12.90
2014,09,13,07,59,12.90
2014,09,13,08,00,13.00
2014,09,13,08,01,13.10
2014,09,13,08,02,13.10
2014,09,13,08,03,13.20
2014,09,13,08,04,13.20
2014,09,13,08,05,13.30
2014,09,13,08,06,13.30
2014,09,13,08,07,13.30
2014,09,13,08,08,13.40
2014,09,13,08,09,13.40
2014,09,13,08,10,13.50
2014,09,13,08,11,13.50
2014,09,13,08,12,13.60
2014,09,13,08,13,13.60
2014,09,13,08,14,13.60
2014,09,13,08,15,13.70
2014,09,13,08,16,13.70
2014,09,13,08,17,13.80
2014,09,13,08,18,13.80
2014,09,13,08,19,13.80
2014,09,13,08,20,13.90
2014,09,13,08,21,13.90
2014,09,13,08,22,14.00
2014,09,13,08,23,14.00
2014,09,13,08,24,14.10
2014,09,13,08,25,14.20
2014,09,13,08,26,14.20
2014,09,13,08,27,14.30
2014,09,13,08,28,14.30
2014,09,13,08,29,14.40
2014,09,13,08,30,14.40
2014,09,13,08,31,14.50
2014,09,13,08,32,14.60
2014,09,13,08,33,14.60
2014,09,13,08,34,14.70
2014,09,13,08,35,14.80
2014,09,13,08,36,14.80
2014,09,13,08,37,14.90
2014,09,13,08,38,15.00
2014,09,13,08,39,15.00
2014,09,13,08,40,15.10
2014,09,13,08,41,15.20
2014,09,13,08,42,15.20
2014,09,13,08,43,15.30
2014,09,13,08,44,15.40
2014,09,13,08,45,15.40
2014,09,13,08,46,15.50
2014,09,13,08,47,15.50
2014,09,13,08,48,15.60
2014,09,13,08,49,15.60
2014,09,13,08,50,15.70
2014,09,13,08,51,15.70
2014,09,13,08,52,15.80
2014,09,13,08,53,15.80
2014,09,13,08,54,15.90
2014,09,13,08,55,15.90
2014,09,13,08,56,16.00
2014,09,13,08,57,16.00
2014,09,13,08,58,16.10
2014,09,13,08,59,16.10
2014,09,13,09,00,16.20
2014,09,13,09,01,16.20
2014,09,13,09,02,16.20
2014,09,13,09,03,16.30
2014,09,13,09,04,16.30
2014,09,13,09,05,16.30
2014,09,13,09,06,16.40
2014,09,13,09,07,16.40
2014,09,13,09,08,16.50
2014,09,13,09,09,16.50
2014,09,13,09,10,16.60
2014,09,13,09,11,16.60
2014,09,13,09,12,16.60
2014,09,13,09,13,16.70
2014,09,13,09,14,16.70
2014,09,13,09,15,16.70
2014,09,13,09,16,16.70
2014,09,13,09,17,16.80
2014,09,13,09,18,16.80
2014,09,13,09,19,16.90
2014,09,13,09,20,16.90
2014,09,13,09,21,17.00
2014,09,13,09,22,17.00
2014,09,13,09,23,17.10
2014,09,13,09,24,17.10
2014,09,13,09,25,17.20
2014,09,13,09,26,17.20
2014,09,13,09,27,17.30
2014,09,13,09,28,17.30
2014,09,13,09,29,17.40
2014,09,13,09,30,17.40
2014,09,13,09,31,17.50
2014,09,13,09,32,17.50
2014,09,13,09,33,17.60
2014,09,13,09,34,17.70
2014,09,13,09,35,17.70
2014,09,13,09,36,17.70
2014,09,13,09,37,17.80
2014,09,13,09,38,17.80
2014,09,13,09,39,17.90
2014,09,13,09,40,17.90
2014,09,13,09,41,17.90
2014,09,13,09,42,18.00
2014,09,13,09,43,18.00
2014,09,13,09,44,18.00
2014,09,13,09,45,18.10
2014,09,13,09,46,18.10
2014,09,13,09,47,18.10
2014,09,13,09,48,18.10
2014,09,13,09,49,18.20
2014,09,13,09,50,18.30
2014,09,13,09,51,18.30
2014,09,13,09,52,18.40
2014,09,13,09,53,18.50
2014,09,13,09,54,18.50
2014,09,13,09,55,18.60
2014,09,13,09,56,18.60
2014,09,13,09,57,18.70
2014,09,13,09,58,18.80
2014,09,13,09,59,18.90
2014,09,13,10,00,19.00
2014,09,13,10,01,19.00
2014,09,13,10,02,19.10
2014,09,13,10,03,19.10
2014,09,13,10,04,19.20
2014,09,13,10,05,19.30
2014,09,13,10,06,19.30
2014,09,13,10,07,19.30
2014,09,13,10,08,19.30
2014,09,13,10,09,19.30
2014,09,13,10,10,19.30
2014,09,13,10,11,19.40
2014,09,13,10,12,19.40
2014,09,13,10,13,19.50
2014,09,13,10,14,19.60
2014,09,13,10,15,19.70
2014,09,13,10,16,19.70
2014,09,13,10,17,19.80
2014,09,13,10,18,19.90
2014,09,13,10,19,20.00
2014,09,13,10,20,20.10
2014,09,13,10,21,20.10
2014,09,13,10,22,20.10
2014,09,13,10,23,20.10
2014,09,13,10,24,20.10
2014,09,13,10,25,20.10
2014,09,13,10,26,20.20
2014,09,13,10,27,20.20
2014,09,13,10,28,20.30
2014,09,13,10,29,20.40
2014,09,13,10,30,20.50
2014,09,13,10,31,20.60
2014,09,13,10,32,20.60
2014,09,13,10,33,20.50
2014,09,13,10,34,20.40
2014,09,13,10,35,20.30
2014,09,13,10,36,20.30
2014,09,13,10,37,20.20
2014,09,13,10,38,20.20
2014,09,13,10,39,20.20
2014,09,13,10,40,20.10
2014,09,13,10,41,20.10
2014,09,13,10,42,20.10
2014,09,13,10,43,20.00
2014,09,13,10,44,20.00
2014,09,13,10,45,20.00
2014,09,13,10,46,20.00
2014,09,13,10,47,20.10
2014,09,13,10,48,20.10
2014,09,13,10,49,20.20
2014,09,13,10,50,20.30
2014,09,13,10,51,20.40
2014,09,13,10,52,20.60
2014,09,13,10,53,20.80
2014,09,13,10,54,21.00
2014,09,13,10,55,21.10
2014,09,13,10,56,21.20
2014,09,13,10,57,21.30
2014,09,13,10,58,21.30
2014,09,13,10,59,21.40
2014,09,13,11,00,21.50
2014,09,13,11,01,21.60
2014,09,13,11,02,21.70
2014,09,13,11,03,21.70
2014,09,13,11,04,21.70
2014,09,13,11,05,21.70
2014,09,13,11,06,21.70
2014,09,13,11,07,21.70
2014,09,13,11,08,21.60
2014,09,13,11,09,21.60
2014,09,13,11,10,21.60
2014,09,13,11,11,21.50
2014,09,13,11,12,21.50
2014,09,13,11,13,21.50
2014,09,13,11,14,21.50
2014,09,13,11,15,21.60
2014,09,13,11,16,21.70
2014,09,13,11,17,21.70
2014,09,13,11,18,21.70
2014,09,13,11,19,21.70
2014,09,13,11,20,21.70
2014,09,13,11,21,21.70
2014,09,13,11,22,21.70
2014,09,13,11,23,21.70
2014,09,13,11,24,21.70
2014,09,13,11,25,21.70
2014,09,13,11,26,21.60
2014,09,13,11,27,21.60
2014,09,13,11,28,21.60
2014,09,13,11,29,21.60
2014,09,13,11,30,21.70
2014,09,13,11,31,21.80
2014,09,13,11,32,21.90
2014,09,13,11,33,22.00
2014,09,13,11,34,22.00
2014,09,13,11,35,22.10
2014,09,13,11,36,22.10
2014,09,13,11,37,22.20
2014,09,13,11,38,22.20
2014,09,13,11,39,22.30
2014,09,13,11,40,22.30
2014,09,13,11,41,22.30
2014,09,13,11,42,22.20
2014,09,13,11,43,22.00
2014,09,13,11,44,21.90
2014,09,13,11,45,21.80
2014,09,13,11,46,21.70
2014,09,13,11,47,21.70
2014,09,13,11,48,21.80
2014,09,13,11,49,21.80
2014,09,13,11,50,21.80
2014,09,13,11,51,21.70
2014,09,13,11,52,21.70
2014,09,13,11,53,21.70
2014,09,13,11,54,21.60
2014,09,13,11,55,21.60
2014,09,13,11,56,21.50
2014,09,13,11,57,21.50
2014,09,13,11,58,21.50
2014,09,13,11,59,21.60
2014,09,13,12,00,21.70
2014,09,13,12,01,21.70
2014,09,13,12,02,21.80
2014,09,13,12,03,21.80
2014,09,13,12,04,21.80
2014,09,13,12,05,21.90
2014,09,13,12,06,21.90
2014,09,13,12,07,22.00
2014,09,13,12,08,21.90
2014,09,13,12,09,21.80
2014,09,13,12,10,21.60
2014,09,13,12,11,21.50
2014,09,13,12,12,21.50
2014,09,13,12,13,21.40
2014,09,13,12,14,21.40
2014,09,13,12,15,21.40
2014,09,13,12,16,21.40
2014,09,13,12,17,21.40
2014,09,13,12,18,21.50
2014,09,13,12,19,21.60
2014,09,13,12,20,21.60
2014,09,13,12,21,21.70
2014,09,13,12,22,21.70
2014,09,13,12,23,21.80
2014,09,13,12,24,21.80
2014,09,13,12,25,21.90
2014,09,13,12,26,22.00
2014,09,13,12,27,22.20
2014,09,13,12,28,22.30
2014,09,13,12,29,22.40
2014,09,13,12,30,22.50
2014,09,13,12,31,22.60
2014,09,13,12,32,22.80
2014,09,13,12,33,22.90
2014,09,13,12,34,22.90
2014,09,13,12,35,23.00
2014,09,13,12,36,23.10
2014,09,13,12,37,23.10
2014,09,13,12,38,23.10
2014,09,13,12,39,23.10
2014,09,13,12,40,23.10
2014,09,13,12,41,23.10
2014,09,13,12,42,23.10
2014,09,13,12,43,23.10
2014,09,13,12,44,23.00
2014,09,13,12,45,23.00
2014,09,13,12,46,22.90
2014,09,13,12,47,22.90
2014,09,13,12,48,22.90
2014,09,13,12,49,22.90
2014,09,13,12,50,23.00
2014,09,13,12,51,23.10
2014,09,13,12,52,23.20
2014,09,13,12,53,23.30
2014,09,13,12,54,23.30
2014,09,13,12,55,23.30
2014,09,13,12,56,23.30
2014,09,13,12,57,23.30
2014,09,13,12,58,23.40
2014,09,13,12,59,23.40
2014,09,13,13,00,23.50
2014,09,13,13,01,23.50
2014,09,13,13,02,23.50
2014,09,13,13,03,23.50
2014,09,13,13,04,23.50
2014,09,13,13,05,23.40
2014,09,13,13,06,23.40
2014,09,13,13,07,23.30
2014,09,13,13,08,23.30
2014,09,13,13,09,23.30
2014,09,13,13,10,23.30
2014,09,13,13,11,23.40
2014,09,13,13,12,23.50
2014,09,13,13,13,23.60
2014,09,13,13,14,23.60
2014,09,13,13,15,23.60
2014,09,13,13,16,23.70
2014,09,13,13,17,23.70
2014,09,13,13,18,23.80
2014,09,13,13,19,23.80
2014,09,13,13,20,23.90
2014,09,13,13,21,24.00
2014,09,13,13,22,24.00
2014,09,13,13,23,24.00
2014,09,13,13,24,24.00
2014,09,13,13,25,24.00
2014,09,13,13,26,23.90
2014,09,13,13,27,23.90
2014,09,13,13,28,24.00
2014,09,13,13,29,24.00
2014,09,13,13,30,24.00
2014,09,13,13,31,23.90
2014,09,13,13,32,23.80
2014,09,13,13,33,23.70
2014,09,13,13,34,23.60
2014,09,13,13,35,23.60
2014,09,13,13,36,23.60
2014,09,13,13,37,23.60
2014,09,13,13,38,23.50
2014,09,13,13,39,23.50
2014,09,13,13,40,23.50
2014,09,13,13,41,23.40
2014,09,13,13,42,23.40
2014,09,13,13,43,23.50
2014,09,13,13,44,23.50
2014,09,13,13,45,23.60
2014,09,13,13,46,23.60
2014,09,13,13,47,23.60
2014,09,13,13,48,23.60
2014,09,13,13,49,23.60
2014,09,13,13,50,23.60
2014,09,13,13,51,23.60
2014,09,13,13,52,23.60
2014,09,13,13,53,23.50
2014,09,13,13,54,23.50
2014,09,13,13,55,23.40
2014,09,13,13,56,23.40
2014,09,13,13,57,23.40
2014,09,13,13,58,23.40
2014,09,13,13,59,23.30
2014,09,13,14,00,23.30
2014,09,13,14,01,23.30
2014,09,13,14,02,23.30
2014,09,13,14,03,23.30
2014,09,13,14,04,23.30
2014,09,13,14,05,23.30
2014,09,13,14,06,23.30
2014,09,13,14,07,23.30
2014,09,13,14,08,23.30
2014,09,13,14,09,23.30
2014,09,13,14,10,23.40
2014,09,13,14,11,23.40
2014,09,13,14,12,23.50
2014,09,13,14,13,23.50
2014,09,13,14,14,23.60
2014,09,13,14,15,23.50
2014,09,13,14,16,23.50
2014,09,13,14,17,23.50
2014,09,13,14,18,23.60
2014,09,13,14,19,23.60
2014,09,13,14,20,23.60
2014,09,13,14,21,23.50
2014,09,13,14,22,23.60
2014,09,13,14,23,23.60
2014,09,13,14,24,23.60
2014,09,13,14,25,23.60
2014,09,13,14,26,23.70
2014,09,13,14,27,23.70
2014,09,13,14,28,23.60
2014,09,13,14,29,23.60
2014,09,13,14,30,23.60
2014,09,13,14,31,23.70
2014,09,13,14,32,23.70
2014,09,13,14,33,23.70
2014,09,13,14,34,23.70
2014,09,13,14,35,23.70
2014,09,13,14,36,23.80
2014,09,13,14,37,23.80
2014,09,13,14,38,23.80
2014,09,13,14,39,23.80
2014,09,13,14,40,23.80
2014,09,13,14,41,23.90
2014,09,13,14,42,23.90
2014,09,13,14,43,23.90
2014,09,13,14,44,24.00
2014,09,13,14,45,24.10
2014,09,13,14,46,24.10
2014,09,13,14,47,24.20
2014,09,13,14,48,24.30
2014,09,13,14,49,24.30
2014,09,13,14,50,24.30
2014,09,13,14,51,24.30
2014,09,13,14,52,24.30
2014,09,13,14,53,24.30
2014,09,13,14,54,24.40
2014,09,13,14,55,24.40
2014,09,13,14,56,24.40
2014,09,13,14,57,24.50
2014,09,13,14,58,24.50
2014,09,13,14,59,24.60
2014,09,13,15,00,24.60
2014,09,13,15,01,24.60
2014,09,13,15,02,24.60
2014,09,13,15,03,24.50
2014,09,13,15,04,24.50
2014,09,13,15,05,24.40
2014,09,13,15,06,24.40
2014,09,13,15,07,24.40
2014,09,13,15,08,24.40
2014,09,13,15,09,24.50
2014,09,13,15,10,24.50
2014,09,13,15,11,24.60
2014,09,13,15,12,24.70
2014,09,13,15,13,24.70
2014,09,13,15,14,24.70
2014,09,13,15,15,24.60
2014,09,13,15,16,24.60
2014,09,13,15,17,24.60
2014,09,13,15,18,24.60
2014,09,13,15,19,24.60
2014,09,13,15,20,24.60
2014,09,13,15,21,24.70
2014,09,13,15,22,24.70
2014,09,13,15,23,24.80
2014,09,13,15,24,24.80
2014,09,13,15,25,24.80
2014,09,13,15,26,24.80
2014,09,13,15,27,24.80
2014,09,13,15,28,24.70
2014,09,13,15,29,24.70
2014,09,13,15,30,24.70
2014,09,13,15,31,24.70
2014,09,13,15,32,24.80
2014,09,13,15,33,24.80
2014,09,13,15,34,24.80
2014,09,13,15,35,24.80
2014,09,13,15,36,24.80
2014,09,13,15,37,24.80
2014,09,13,15,38,24.80
2014,09,13,15,39,24.80
2014,09,13,15,40,24.80
2014,09,13,15,41,24.80
2014,09,13,15,42,24.70
2014,09,13,15,43,24.70
2014,09,13,15,44,24.70
2014,09,13,15,45,24.70
2014,09,13,15,46,24.70
2014,09,13,15,47,24.70
2014,09,13,15,48,24.80
2014,09,13,15,49,24.80
2014,09,13,15,50,24.90
2014,09,13,15,51,25.00
2014,09,13,15,52,25.00
2014,09,13,15,53,25.10
2014,09,13,15,54,25.10
2014,09,13,15,55,25.00
2014,09,13,15,56,25.00
2014,09,13,15,57,25.00
2014,09,13,15,58,25.00
2014,09,13,15,59,25.00
2014,09,13,16,00,25.00
2014,09,13,16,01,24.90
2014,09,13,16,02,24.90
2014,09,13,16,03,24.90
2014,09,13,16,04,24.90
2014,09,13,16,05,24.90
2014,09,13,16,06,24.90
2014,09,13,16,07,24.90
2014,09,13,16,08,24.90
2014,09,13,16,09,24.90
2014,09,13,16,10,24.90
2014,09,13,16,11,24.90
2014,09,13,16,12,25.00
2014,09,13,16,13,25.00
2014,09,13,16,14,25.10
2014,09,13,16,15,25.10
2014,09,13,16,16,25.10
2014,09,13,16,17,25.20
2014,09,13,16,18,25.20
2014,09,13,16,19,25.20
2014,09,13,16,20,25.20
2014,09,13,16,21,25.10
2014,09,13,16,22,25.10
2014,09,13,16,23,25.10
2014,09,13,16,24,25.10
2014,09,13,16,25,25.10
2014,09,13,16,26,25.10
2014,09,13,16,27,25.10
2014,09,13,16,28,25.10
2014,09,13,16,29,25.10
2014,09,13,16,30,25.10
2014,09,13,16,31,25.10
2014,09,13,16,32,25.10
2014,09,13,16,33,25.10
2014,09,13,16,34,25.10
2014,09,13,16,35,25.10
2014,09,13,16,36,25.10
2014,09,13,16,37,25.10
2014,09,13,16,38,25.10
2014,09,13,16,39,25.10
2014,09,13,16,40,25.10
2014,09,13,16,41,25.00
2014,09,13,16,42,25.00
2014,09,13,16,43,25.10
2014,09,13,16,44,25.10
2014,09,13,16,45,25.10
2014,09,13,16,46,25.10
2014,09,13,16,47,25.10
2014,09,13,16,48,25.00
2014,09,13,16,49,25.10
2014,09,13,16,50,25.10
2014,09,13,16,51,25.10
2014,09,13,16,52,25.10
2014,09,13,16,53,25.10
2014,09,13,16,54,25.10
2014,09,13,16,55,25.10
2014,09,13,16,56,25.20
2014,09,13,16,57,25.20
2014,09,13,16,58,25.20
2014,09,13,16,59,25.30
2014,09,13,17,00,25.30
2014,09,13,17,01,25.30
2014,09,13,17,02,25.30
2014,09,13,17,03,25.30
2014,09,13,17,04,25.30
2014,09,13,17,05,25.30
2014,09,13,17,06,25.30
2014,09,13,17,07,25.30
2014,09,13,17,08,25.30
2014,09,13,17,09,25.30
2014,09,13,17,10,25.30
2014,09,13,17,11,25.20
2014,09,13,17,12,25.20
2014,09,13,17,13,25.20
2014,09,13,17,14,25.20
2014,09,13,17,15,25.20
2014,09,13,17,16,25.20
2014,09,13,17,17,25.20
2014,09,13,17,18,25.20
2014,09,13,17,19,25.20